Satellite-Ground Cal/Val Region Overpasses Predictions

Prediction of Satellite NPP Overpassing Cal/Val Region: PacNW

Region Location: (Latitude: 10.00, Longitude: 139.50) to (Latitude: 22.70, Longitude: 165.60).

Table of predicted overpasses for the next 14.0 days since TLE Epoch: 7/13/2012
Interval Starting Time Starting Location Ending Time Ending Location
1 07/14/2012 02:18:22 ( 10.01, 164.69) 07/14/2012 02:21:58 ( 22.69, 161.68)
2 07/14/2012 14:50:16 ( 22.68, 161.91) 07/14/2012 14:53:51 ( 10.06, 158.92)
3 07/15/2012 03:40:51 ( 10.02, 144.07) 07/15/2012 03:44:26 ( 22.65, 141.07)
4 07/15/2012 14:32:30 ( 18.27, 165.59) 07/15/2012 14:34:50 ( 10.04, 163.67)
5 07/15/2012 16:12:45 ( 22.66, 141.29) 07/15/2012 16:14:51 ( 15.27, 139.50)
6 07/16/2012 03:21:49 ( 10.04, 148.82) 07/16/2012 03:25:24 ( 22.66, 145.82)
7 07/16/2012 15:53:43 ( 22.65, 146.04) 07/16/2012 15:57:18 ( 10.03, 143.04)
8 07/17/2012 03:02:48 ( 10.05, 153.58) 07/17/2012 03:06:23 ( 22.67, 150.58)
9 07/17/2012 15:34:41 ( 22.69, 150.81) 07/17/2012 15:38:17 ( 10.01, 147.80)
10 07/18/2012 02:43:46 ( 10.01, 158.34) 07/18/2012 02:47:22 ( 22.69, 155.33)
11 07/18/2012 15:15:39 ( 22.68, 155.56) 07/18/2012 15:19:14 ( 10.06, 152.56)
12 07/19/2012 02:24:44 ( 10.02, 163.09) 07/19/2012 02:28:19 ( 22.64, 160.09)
13 07/19/2012 14:56:38 ( 22.66, 160.31) 07/19/2012 15:00:13 ( 10.04, 157.31)
14 07/20/2012 02:08:26 ( 19.61, 165.60) 07/20/2012 02:09:18 ( 22.66, 164.85)
15 07/20/2012 03:47:13 ( 10.04, 142.47) 07/20/2012 03:50:45 ( 22.49, 139.51)
16 07/20/2012 14:37:36 ( 22.65, 165.07) 07/20/2012 14:41:11 ( 10.03, 162.07)
17 07/20/2012 16:19:06 ( 22.64, 139.69) 07/20/2012 16:19:18 ( 21.94, 139.51)
18 07/21/2012 03:28:11 ( 10.06, 147.22) 07/21/2012 03:31:46 ( 22.68, 144.22)
19 07/21/2012 16:00:04 ( 22.69, 144.46) 07/21/2012 16:03:40 ( 10.01, 141.44)
20 07/22/2012 03:09:09 ( 10.02, 151.99) 07/22/2012 03:12:45 ( 22.70, 148.97)
21 07/22/2012 15:41:02 ( 22.67, 149.21) 07/22/2012 15:44:37 ( 10.05, 146.21)
22 07/23/2012 02:50:07 ( 10.03, 156.74) 07/23/2012 02:53:42 ( 22.66, 153.74)
23 07/23/2012 15:22:01 ( 22.65, 153.96) 07/23/2012 15:25:36 ( 10.03, 150.96)
24 07/24/2012 02:31:06 ( 10.05, 161.49) 07/24/2012 02:34:41 ( 22.67, 158.49)
25 07/24/2012 15:02:58 ( 22.69, 158.72) 07/24/2012 15:06:34 ( 10.01, 155.71)
26 07/25/2012 02:12:52 ( 12.89, 165.59) 07/25/2012 02:15:39 ( 22.69, 163.24)
27 07/25/2012 03:53:33 ( 10.02, 140.88) 07/25/2012 03:55:14 ( 15.95, 139.50)
28 07/25/2012 14:43:57 ( 22.68, 163.48) 07/25/2012 14:47:32 ( 10.06, 160.48)
29 07/26/2012 03:34:32 ( 10.03, 145.63) 07/26/2012 03:38:07 ( 22.66, 142.63)
30 07/26/2012 14:28:04 ( 11.62, 165.59) 07/26/2012 14:28:31 ( 10.04, 165.23)
31 07/26/2012 16:06:26 ( 22.65, 142.85) 07/26/2012 16:10:01 ( 10.03, 139.85)
32 07/27/2012 03:15:30 ( 10.05, 150.38) 07/27/2012 03:19:05 ( 22.68, 147.38)


NCC Satellite Cal/Val Overpasses Prediction Service
